sat.trackr.live / text

‹ back to catalog

STARLINK-5042

NORAD 53899 · 2022-119P

PAYLOAD ACTIVE UNKNOWN

§ Identity

Operator
Country
US
Launch date
2022-09-24
Launch site
AFETR
Launch vehicle
Mass (kg)
RCS (m²)

Purposes: comms

External: N2YO · Heavens-Above · Gunter

§ Orbital elements

Epoch: 2026-05-25T04:00:03.998880Z

Period
91.75 min
Inclination
53.2169°
Eccentricity
0.0000627
Mean motion
15.69423471 rev/d
Perigee alt
360.1 km
Apogee alt
361.0 km
Semi-major
6,738.7 km
B*
4.2980e-3
RAAN
326.4529°
Arg perigee
41.9620°
Mean anomaly
312.9348°
Rev number
584

§ Raw data

STARLINK-50421 53899U 22119P   26145.16671295  .00549612  00000+0  42980-2 0  99952 53899  53.2169 326.4529 0000627  41.9620 312.9348 15.69423471  5849

JSON: /api/v1/satellites/53899 · /tle

For live sub-satellite position, see the globe view (requires WebGL).

§ Visibility from observer

Set your observer location to see the next 7 days of passes ≥ 10°. The values pass through the URL so the page stays shareable.

No JS? Fill the form by hand. The geolocation button needs JavaScript.